FW1574 Weather Reports


Display with metric or nautical units.
time (UTC)temp
F
wind
direction
speed
MPH
gust
MPH
rain 1hr
in
rain 24hr
in
rain mn
in
humidity
%
barometer
mb
20260509185504 74 243 0.0 3.0 0.00 0.00 0.00 64 1010.3
20260509185101 74 245 1.0 3.0 0.00 0.00 0.00 65 1010.3
20260509184610 73 305 2.0 3.0 0.00 0.00 0.00 65 1010.2
20260509184100 73 249 1.0 3.0 0.00 0.00 0.00 65 1010.2
20260509183559 73 290 1.0 3.0 0.00 0.00 0.00 64 1010.2
20260509183059 73 254 1.0 2.0 0.00 0.00 0.00 64 1010.3
20260509182600 72 299 0.0 2.0 0.00 0.00 0.00 68 1010.5
20260509182058 72 302 0.0 2.0 0.00 0.00 0.00 67 1010.4
20260509181604 72 278 0.0 2.0 0.00 0.00 0.00 66 1010.3
20260509181059 72 304 1.0 3.0 0.00 0.00 0.00 67 1010.3
20260509180601 73 215 1.0 3.0 0.00 0.00 0.00 62 1010.3
20260509180103 73 259 1.0 3.0 0.00 0.00 0.00 63 1010.1
20260509175556 73 284 0.0 2.0 0.00 0.00 0.00 65 1010.2
20260509175055 73 250 0.0 2.0 0.00 0.00 0.00 64 1010.2
20260509174556 73 283 0.0 3.0 0.00 0.00 0.00 65 1010.2
20260509174053 72 355 0.0 2.0 0.00 0.00 0.00 66 1010.4
20260509173553 71 355 0.0 2.0 0.00 0.00 0.00 66 1010.5
20260509173057 71 225 0.0 3.0 0.00 0.00 0.00 68 1010.6
20260509172553 71 216 0.0 3.0 0.00 0.00 0.00 63 1010.7
20260509172052 71 198 0.0 2.0 0.00 0.00 0.00 66 1010.7
20260509171553 71 239 0.0 2.0 0.00 0.00 0.00 67 1010.7
20260509171054 72 275 1.0 2.0 0.00 0.00 0.00 64 1010.7
20260509170552 72 344 0.0 3.0 0.00 0.00 0.00 64 1010.7
20260509170100 72 292 1.0 3.0 0.00 0.00 0.00 66 1010.8
20260509165553 72 248 2.0 3.0 0.00 0.00 0.00 66 1010.8
20260509165049 71 43 0.0 3.0 0.00 0.00 0.00 68 1010.9
20260509164550 71 257 2.0 3.0 0.00 0.00 0.00 68 1010.9
20260509164051 71 256 1.0 3.0 0.00 0.00 0.00 67 1011.1
20260509163547 70 132 0.0 6.0 0.00 0.00 0.00 69 1011.1
20260509163057 70 125 2.0 6.0 0.00 0.00 0.00 69 1011.1
20260509162545 70 59 2.0 5.0 0.00 0.00 0.00 70 1011.0
20260509162045 69 295 0.0 3.0 0.00 0.00 0.00 71 1011.1
20260509161552 70 288 1.0 3.0 0.00 0.00 0.00 70 1011.2
20260509161044 69 69 1.0 3.0 0.00 0.00 0.00 72 1011.3
20260509160543 69 82 1.0 3.0 0.00 0.00 0.00 73 1011.4
20260509160043 69 71 1.0 3.0 0.00 0.00 0.00 72 1011.4
20260509155541 69 111 0.0 3.0 0.00 0.00 0.00 73 1011.6
20260509155045 68 254 0.0 3.0 0.00 0.00 0.00 74 1011.5
20260509154541 68 289 1.0 3.0 0.00 0.00 0.00 72 1011.5
20260509154040 67 252 0.0 2.0 0.00 0.00 0.00 75 1011.7
20260509153539 67 252 0.0 3.0 0.00 0.00 0.00 78 1011.7
20260509153042 66 252 0.0 3.0 0.00 0.00 0.00 77 1011.7
20260509152535 65 250 1.0 4.0 0.00 0.00 0.00 77 1011.8
20260509152136 65 255 2.0 4.0 0.00 0.00 0.00 78 1011.9
20260509151537 65 233 0.0 3.0 0.00 0.00 0.00 77 1011.7
20260509151033 65 233 1.0 3.0 0.00 0.00 0.00 78 1011.7
20260509150533 65 198 1.0 2.0 0.00 0.00 0.00 78 1011.6
20260509150031 64 204 0.0 2.0 0.00 0.00 0.00 81 1011.6
20260509145533 64 218 0.0 2.0 0.00 0.00 0.00 80 1011.8
20260509145031 64 218 0.0 2.0 0.00 0.00 0.00 80 1011.8
20260509144532 64 213 1.0 2.0 0.00 0.00 0.00 80 1011.8
20260509144030 64 210 0.0 3.0 0.00 0.00 0.00 80 1011.7
20260509143530 63 210 1.0 3.0 0.00 0.00 0.00 80 1011.8
20260509143035 64 244 1.0 3.0 0.00 0.00 0.00 79 1011.7
20260509142528 63 244 1.0 3.0 0.00 0.00 0.00 80 1011.6
20260509142028 63 244 1.0 3.0 0.00 0.00 0.00 80 1011.4
20260509141529 63 244 1.0 3.0 0.00 0.00 0.00 80 1011.3
20260509141027 63 170 0.0 2.0 0.00 0.00 0.00 81 1011.3
20260509140526 63 241 0.0 3.0 0.00 0.00 0.00 80 1011.2
20260509140026 63 220 1.0 2.0 0.00 0.00 0.00 81 1011.2
20260509135525 63 216 0.0 2.0 0.00 0.00 0.00 83 1011.2
20260509135025 63 216 0.0 2.0 0.00 0.00 0.00 83 1011.0
20260509134523 62 183 0.0 2.0 0.00 0.00 0.00 84 1011.2
20260509134023 62 168 0.0 2.0 0.00 0.00 0.00 84 1011.2
20260509133522 61 119 0.0 2.0 0.00 0.00 0.00 86 1011.1
20260509133021 61 161 0.0 2.0 0.00 0.00 0.00 86 1011.1
20260509132520 61 161 0.0 1.0 0.00 0.00 0.00 86 1011.0
20260509132019 60 101 0.0 3.0 0.00 0.00 0.00 87 1011.0
20260509131518 60 104 1.0 3.0 0.00 0.00 0.00 88 1010.9
20260509131017 59 230 0.0 0.0 0.00 0.00 0.00 89 1011.2
20260509130520 59 230 0.0 0.0 0.00 0.00 0.00 90 1011.3
20260509130017 58 230 0.0 0.0 0.00 0.00 0.00 90 1011.4
20260509125523 58 230 0.0 0.0 0.00 0.00 0.00 90 1011.5
20260509125015 58 230 0.0 0.0 0.00 0.00 0.00 90 1011.7
20260509124514 58 230 0.0 0.0 0.00 0.00 0.00 90 1011.6
20260509124013 58 230 0.0 0.0 0.00 0.00 0.00 91 1011.4
20260509123513 57 230 0.0 1.0 0.00 0.00 0.00 91 1011.4
20260509123012 57 230 0.0 1.0 0.00 0.00 0.00 91 1011.3
20260509122517 57 230 0.0 1.0 0.00 0.00 0.00 91 1011.2
20260509122017 57 230 0.0 1.0 0.00 0.00 0.00 91 1011.2
20260509121511 57 230 0.0 0.0 0.00 0.00 0.00 91 1011.2
20260509121010 57 230 0.0 0.0 0.00 0.00 0.00 91 1011.2
20260509120510 57 230 0.0 1.0 0.00 0.00 0.00 91 1011.3
20260509120010 56 230 0.0 1.0 0.00 0.00 0.00 91 1011.0
20260509115511 56 230 0.0 0.0 0.00 0.00 0.00 91 1011.0
20260509115009 56 230 0.0 0.0 0.00 0.00 0.00 91 1011.1
20260509114521 56 230 0.0 0.0 0.00 0.00 0.00 91 1010.9
20260509114007 56 230 0.0 1.0 0.00 0.00 0.00 91 1011.0
20260509113508 56 161 0.0 0.0 0.00 0.00 0.00 91 1011.0
20260509113008 56 161 0.0 0.0 0.00 0.00 0.00 91 1011.1
20260509112507 56 161 0.0 0.0 0.00 0.00 0.00 91 1011.0
20260509112014 56 161 0.0 0.0 0.00 0.00 0.00 91 1010.8
20260509111507 56 161 0.0 0.0 0.00 0.00 0.00 91 1010.8
20260509111006 56 161 0.0 0.0 0.00 0.00 0.00 91 1010.9
20260509110509 56 161 0.0 0.0 0.00 0.00 0.00 91 1011.0
20260509110006 56 161 0.0 0.0 0.00 0.00 0.00 91 1010.9
20260509105506 56 161 0.0 0.0 0.00 0.00 0.00 91 1010.8
20260509105009 55 161 0.0 0.0 0.00 0.00 0.00 91 1010.8
20260509104506 55 161 0.0 0.0 0.00 0.00 0.00 91 1010.8
20260509104006 55 161 0.0 0.0 0.00 0.00 0.00 91 1010.8
20260509103504 55 161 0.0 0.0 0.00 0.00 0.00 91 1010.8
20260509103004 55 161 0.0 0.0 0.00 0.00 0.00 91 1010.8
20260509102504 55 161 0.0 0.0 0.00 0.00 0.00 91 1010.7
20260509102005 55 161 0.0 0.0 0.00 0.00 0.00 91 1010.7
20260509101506 55 161 0.0 0.0 0.00 0.00 0.00 92 1010.9
20260509101003 55 161 0.0 0.0 0.00 0.00 0.00 92 1010.9
20260509100503 55 161 0.0 0.0 0.00 0.00 0.00 92 1010.7
20260509100004 55 161 0.0 0.0 0.00 0.00 0.00 92 1010.7
20260509095505 55 161 0.0 0.0 0.00 0.00 0.00 92 1010.6
20260509095002 55 161 0.0 0.0 0.00 0.00 0.00 91 1010.6
20260509094502 55 161 0.0 0.0 0.00 0.00 0.00 91 1010.6
20260509094002 55 161 0.0 0.0 0.00 0.00 0.00 91 1010.6
20260509093501 55 161 0.0 0.0 0.00 0.00 0.00 92 1010.6
20260509093101 55 161 0.0 0.0 0.00 0.00 0.00 92 1010.7
20260509093001 55 161 0.0 0.0 0.00 0.00 0.00 92 1010.7
20260509092501 55 161 0.0 0.0 0.00 0.00 0.00 92 1010.9
20260509092100 55 161 0.0 0.0 0.00 0.00 0.00 92 1011.0
20260509091602 54 161 0.0 0.0 0.00 0.00 0.00 92 1011.0
20260509091100 54 161 0.0 0.0 0.00 0.00 0.00 92 1010.9
20260509090600 54 161 0.0 0.0 0.00 0.00 0.00 92 1011.0
20260509090123 54 161 0.0 0.0 0.00 0.00 0.00 92 1010.9
20260509085559 54 161 0.0 0.0 0.00 0.00 0.00 93 1011.0
20260509085102 53 161 0.0 0.0 0.00 0.00 0.00 93 1011.2
20260509084604 53 161 0.0 0.0 0.00 0.00 0.00 93 1011.4
20260509084059 53 161 0.0 0.0 0.00 0.00 0.00 93 1011.6
20260509083557 53 161 0.0 0.0 0.00 0.00 0.00 93 1011.5
20260509083058 53 161 0.0 0.0 0.00 0.00 0.00 93 1011.3
20260509082557 52 161 0.0 0.0 0.00 0.00 0.00 94 1011.2
20260509082057 52 161 0.0 1.0 0.00 0.00 0.00 94 1011.0
20260509081557 51 161 0.0 1.0 0.00 0.00 0.00 94 1011.1
20260509081056 51 161 0.0 2.0 0.00 0.00 0.00 93 1011.2
20260509080555 51 161 0.0 1.0 0.00 0.00 0.00 93 1011.2
20260509080109 51 161 0.0 1.0 0.00 0.00 0.00 93 1011.3
20260509075553 52 161 0.0 1.0 0.00 0.00 0.00 93 1011.2
20260509075057 52 161 0.0 0.0 0.00 0.00 0.00 93 1011.0
20260509074554 52 161 0.0 0.0 0.00 0.00 0.00 93 1011.1
20260509074053 52 161 0.0 0.0 0.00 0.00 0.00 93 1010.9
20260509073552 52 161 0.0 0.0 0.00 0.00 0.00 93 1010.7
20260509073105 52 161 0.0 0.0 0.00 0.00 0.00 93 1010.7
20260509072551 52 161 0.0 0.0 0.00 0.00 0.00 92 1010.6
20260509072050 52 161 0.0 0.0 0.00 0.00 0.00 92 1010.6
20260509071552 52 161 0.0 0.0 0.00 0.00 0.00 92 1010.5
20260509071050 52 161 0.0 0.0 0.00 0.00 0.00 92 1010.5
20260509070549 52 161 0.0 0.0 0.00 0.00 0.00 92 1010.7
20260509070055 52 161 0.0 0.0 0.00 0.00 0.00 92 1010.8
20260509065546 52 161 0.0 0.0 0.00 0.00 0.00 91 1010.9
20260509065046 52 161 0.0 0.0 0.00 0.00 0.00 91 1011.1
20260509064547 52 161 0.0 0.0 0.00 0.00 0.00 91 1011.1
20260509064047 52 161 0.0 0.0 0.00 0.00 0.00 91 1011.1
20260509063545 53 161 0.0 0.0 0.00 0.00 0.00 91 1011.0
20260509063050 53 161 0.0 0.0 0.00 0.00 0.00 90 1011.2
20260509062544 53 161 0.0 0.0 0.00 0.00 0.00 90 1011.2
20260509062044 53 161 0.0 0.0 0.00 0.00 0.00 91 1011.2
20260509061544 53 161 0.0 0.0 0.00 0.00 0.00 91 1011.4
20260509061042 53 161 0.0 0.0 0.00 0.00 0.00 91 1011.4
20260509060542 52 161 0.0 0.0 0.00 0.00 0.00 91 1011.5
20260509060041 52 161 0.0 0.0 0.00 0.00 0.00 91 1011.6
20260509055540 52 161 0.0 0.0 0.00 0.00 0.00 91 1011.8
20260509055039 52 161 0.0 0.0 0.00 0.00 0.00 92 1011.8
20260509054539 52 161 0.0 0.0 0.00 0.00 0.00 92 1011.8
20260509054039 52 161 0.0 0.0 0.00 0.00 0.00 91 1012.0
20260509053538 52 161 0.0 0.0 0.00 0.00 0.00 91 1011.9
20260509053044 52 161 0.0 0.0 0.00 0.00 0.00 91 1012.0
20260509052537 52 161 0.0 0.0 0.00 0.00 0.00 90 1011.9
20260509052037 52 161 0.0 2.0 0.00 0.00 0.00 90 1011.9
20260509051540 52 161 1.0 2.0 0.00 0.00 0.00 89 1012.0
20260509051034 53 161 0.0 1.0 0.00 0.00 0.00 88 1012.1
20260509050532 54 161 0.0 0.0 0.00 0.00 0.00 89 1012.1
20260509050048 53 161 0.0 0.0 0.00 0.00 0.00 89 1012.2
20260509045532 53 161 0.0 0.0 0.00 0.00 0.00 89 1012.1
20260509045033 54 161 0.0 0.0 0.00 0.00 0.00 89 1012.1
20260509044535 54 161 0.0 0.0 0.00 0.00 0.00 87 1012.1
20260509044029 54 161 0.0 0.0 0.00 0.00 0.00 87 1012.1
20260509043529 54 161 0.0 0.0 0.00 0.00 0.00 87 1012.2
20260509043036 54 161 0.0 0.0 0.00 0.00 0.00 86 1012.3
20260509042527 54 161 0.0 0.0 0.00 0.00 0.00 86 1012.4
20260509042026 55 161 0.0 0.0 0.00 0.00 0.00 85 1012.5
20260509041525 55 161 0.0 0.0 0.00 0.00 0.00 84 1012.4
20260509041024 56 161 0.0 0.0 0.00 0.00 0.00 83 1012.5
20260509040522 56 161 0.0 0.0 0.00 0.00 0.00 82 1012.6
20260509040022 56 161 0.0 0.0 0.00 0.00 0.00 82 1012.5
20260509035522 56 161 0.0 0.0 0.00 0.00 0.00 81 1012.6
20260509035022 57 161 0.0 0.0 0.00 0.00 0.00 81 1012.5
20260509034521 57 161 0.0 0.0 0.00 0.00 0.00 81 1012.5
20260509034021 57 161 0.0 0.0 0.00 0.00 0.00 82 1012.6
20260509033521 57 161 0.0 0.0 0.00 0.00 0.00 82 1012.5
20260509033025 57 161 0.0 0.0 0.00 0.00 0.00 82 1012.5
20260509032523 57 161 0.0 0.0 0.00 0.00 0.00 81 1012.6
20260509032020 57 161 0.0 0.0 0.00 0.00 0.00 78 1012.5
20260509031524 57 161 0.0 0.0 0.00 0.00 0.00 78 1012.5
20260509031020 57 161 0.0 0.0 0.00 0.00 0.00 78 1012.7
20260509030520 57 161 0.0 0.0 0.00 0.00 0.00 77 1012.7
20260509030022 57 161 0.0 0.0 0.00 0.00 0.00 77 1012.7
20260509025519 57 161 0.0 0.0 0.00 0.00 0.00 78 1012.6
20260509025019 58 161 0.0 0.0 0.00 0.00 0.00 79 1012.7
20260509024519 58 161 0.0 0.0 0.00 0.00 0.00 79 1012.7
20260509024023 58 161 0.0 0.0 0.00 0.00 0.00 77 1012.8
20260509023519 58 161 0.0 0.0 0.00 0.00 0.00 77 1012.8
20260509023018 58 161 0.0 0.0 0.00 0.00 0.00 77 1012.7
20260509022518 59 161 0.0 0.0 0.00 0.00 0.00 75 1012.6
20260509022019 59 161 0.0 0.0 0.00 0.00 0.00 73 1012.7
20260509021518 59 161 0.0 0.0 0.00 0.00 0.00 72 1012.5
20260509021017 59 161 0.0 0.0 0.00 0.00 0.00 70 1012.6
20260509020519 60 161 0.0 0.0 0.00 0.00 0.00 70 1012.4
20260509020021 60 161 0.0 0.0 0.00 0.00 0.00 69 1012.4
20260509015518 60 161 0.0 0.0 0.00 0.00 0.00 71 1012.5
20260509015024 60 161 0.0 0.0 0.00 0.00 0.00 69 1012.4
20260509014518 61 161 0.0 0.0 0.00 0.00 0.00 69 1012.4
20260509014017 61 161 0.0 0.0 0.00 0.00 0.00 67 1012.4
20260509013517 61 161 0.0 0.0 0.00 0.00 0.00 69 1012.3
20260509013017 61 161 0.0 0.0 0.00 0.00 0.00 67 1012.3
20260509012516 61 161 0.0 0.0 0.00 0.00 0.00 67 1012.3
20260509012016 62 161 0.0 0.0 0.00 0.00 0.00 66 1012.3
20260509011516 62 161 0.0 0.0 0.00 0.00 0.00 65 1012.3
20260509011015 62 161 0.0 0.0 0.00 0.00 0.00 65 1012.4
20260509010518 63 161 0.0 0.0 0.00 0.00 0.00 63 1012.3
20260509010017 63 161 0.0 0.0 0.00 0.00 0.00 64 1012.4
20260509005516 63 161 0.0 0.0 0.00 0.00 0.00 65 1012.4
20260509005015 64 161 0.0 0.0 0.00 0.00 0.00 62 1012.4
20260509004517 64 161 0.0 1.0 0.00 0.00 0.00 63 1012.5
20260509004016 64 161 0.0 1.0 0.00 0.00 0.00 63 1012.4
20260509003517 64 221 0.0 1.0 0.00 0.00 0.00 61 1012.4
20260509003014 65 221 0.0 1.0 0.00 0.00 0.00 61 1012.3
20260509002514 65 223 0.0 0.0 0.00 0.00 0.00 62 1012.4
20260509002017 65 223 0.0 1.0 0.00 0.00 0.00 65 1012.3
20260509001513 66 223 0.0 2.0 0.00 0.00 0.00 62 1012.4
20260509001012 66 223 0.0 2.0 0.00 0.00 0.00 58 1012.4
20260509000513 66 224 0.0 2.0 0.00 0.00 0.00 58 1012.4
20260509000024 66 224 0.0 2.0 0.00 0.00 0.00 63 1012.4
20260508235513 67 224 0.0 2.0 0.00 0.00 0.00 61 1012.2
20260508235013 67 224 0.0 2.0 0.00 0.00 0.00 61 1012.3
20260508234513 67 224 0.0 2.0 0.00 0.00 0.00 60 1012.3
20260508234014 68 261 0.0 2.0 0.00 0.00 0.00 54 1012.1
20260508233517 68 261 0.0 2.0 0.00 0.00 0.00 54 1012.1
20260508233013 68 261 0.0 3.0 0.00 0.00 0.00 57 1012.2
20260508232511 68 261 1.0 3.0 0.00 0.00 0.00 53 1012.2
20260508232010 68 261 1.0 2.0 0.00 0.00 0.00 54 1012.1
20260508231510 69 261 0.0 2.0 0.00 0.00 0.00 51 1012.3
20260508231014 68 217 0.0 2.0 0.00 0.00 0.00 57 1012.4
20260508230509 68 164 0.0 0.0 0.00 0.00 0.00 56 1012.4
20260508230009 69 163 0.0 0.0 0.00 0.00 0.00 52 1012.4
20260508225509 69 209 0.0 0.0 0.00 0.00 0.00 56 1012.4
20260508225009 68 209 0.0 0.0 0.00 0.00 0.00 53 1012.3
20260508224528 68 209 0.0 0.0 0.00 0.00 0.00 51 1012.5
20260508224008 68 209 0.0 0.0 0.00 0.00 0.00 58 1012.5
20260508223508 68 209 0.0 0.0 0.00 0.00 0.00 51 1012.5
20260508223010 69 209 0.0 0.0 0.00 0.00 0.00 51 1012.6
20260508222508 68 204 0.0 0.0 0.00 0.00 0.00 54 1012.6
20260508222007 68 204 0.0 0.0 0.00 0.00 0.00 54 1012.6
20260508221507 68 204 0.0 1.0 0.00 0.00 0.00 56 1012.6
20260508221008 68 204 0.0 1.0 0.00 0.00 0.00 60 1012.5
20260508220507 68 204 0.0 1.0 0.00 0.00 0.00 55 1012.5
20260508220009 69 204 0.0 2.0 0.00 0.00 0.00 50 1012.4
20260508215507 69 204 0.0 2.0 0.00 0.00 0.00 51 1012.4
20260508215006 69 234 0.0 2.0 0.00 0.00 0.00 55 1012.4
20260508214507 68 233 0.0 2.0 0.00 0.00 0.00 51 1012.3
20260508214006 69 261 0.0 2.0 0.00 0.00 0.00 50 1012.4
20260508213505 69 261 0.0 2.0 0.00 0.00 0.00 50 1012.3
20260508213007 69 261 0.0 2.0 0.00 0.00 0.00 47 1012.3
20260508212505 69 261 0.0 2.0 0.00 0.00 0.00 47 1012.4
20260508212003 70 261 1.0 3.0 0.00 0.00 0.00 47 1012.5
20260508211503 70 261 1.0 3.0 0.00 0.00 0.00 41 1012.6
20260508211003 70 236 0.0 3.0 0.00 0.00 0.00 42 1012.7
20260508210503 70 239 0.0 2.0 0.00 0.00 0.00 48 1012.8
20260508210003 70 228 0.0 3.0 0.00 0.00 0.00 45 1012.8
20260508205501 70 260 1.0 2.0 0.00 0.00 0.00 43 1012.8
20260508205103 70 244 1.0 2.0 0.00 0.00 0.00 41 1013.0
20260508204600 69 205 1.0 2.0 0.00 0.00 0.00 44 1013.0
20260508204059 69 164 0.0 2.0 0.00 0.00 0.00 45 1012.9
20260508203600 69 164 0.0 1.0 0.00 0.00 0.00 50 1012.8
20260508203102 68 167 0.0 2.0 0.00 0.00 0.00 49 1012.8
20260508202559 69 167 0.0 2.0 0.00 0.00 0.00 43 1012.8
20260508202059 69 156 0.0 2.0 0.00 0.00 0.00 43 1012.8
20260508201600 68 156 0.0 2.0 0.00 0.00 0.00 44 1012.9
20260508201057 68 165 0.0 2.0 0.00 0.00 0.00 48 1013.1
20260508200601 68 157 0.0 2.0 0.00 0.00 0.00 46 1013.1
20260508200108 69 191 0.0 2.0 0.00 0.00 0.00 44 1013.1
20260508195555 69 150 0.0 1.0 0.00 0.00 0.00 45 1013.4
20260508195055 69 150 0.0 2.0 0.00 0.00 0.00 43 1013.4
20260508194554 69 134 0.0 6.0 0.00 0.00 0.00 44 1013.5
20260508194052 69 82 2.0 6.0 0.00 0.00 0.00 38 1013.6
20260508193553 69 193 0.0 2.0 0.00 0.00 0.00 46 1013.7
20260508193059 69 193 0.0 2.0 0.00 0.00 0.00 39 1013.6
20260508192551 68 98 0.0 2.0 0.00 0.00 0.00 42 1013.6
20260508192051 68 109 0.0 3.0 0.00 0.00 0.00 44 1013.9
20260508191551 68 109 0.0 3.0 0.00 0.00 0.00 42 1013.8
20260508191050 68 75 0.0 2.0 0.00 0.00 0.00 42 1014.0
20260508190549 68 81 0.0 2.0 0.00 0.00 0.00 41 1014.1
20260508190050 68 81 0.0 3.0 0.00 0.00 0.00 46 1014.0